[[{"header":{"parameterUnit":"m.s-1","parameterCategory":2,"la1":30.2991,"la2":30.254,"lo1":-89.0895,"lo2":-89.0444,"dy":0.0017,"dx":0.0017,"nx":28,"ny":28,"refTime":"2024-07-15T09:00:00:Z","depth":"0","parameterNumber":2,"parameterNumberName":"U-component_of_CURRENTS"},"data":[0,0,0,0,0,0,0,0,0,0,0,0,0,0,0,0,0,0,0,0,0,0,0,0,0,0,0,0,0,0,0,0,0,0,0,0,0,0,0,0,0,0,0,0,0,0,0,0,0,0,0,0,0,0,0,0,0,0,0.131,0.131,0,0.1256,0.1255,0.1255,0.1194,0.1193,0.1192,0.1191,0.1091,0.1089,0.1087,0,0,0,0,0,0,0,0,0,0,0,0,0,0.1362,0.1361,0.131,0.131,0.1309,0.1256,0.1255,0.1254,0.1194,0.1193,0.1192,0.1191,0.1092,0.1089,0.1087,0,0,0,0,0,0,0,0,0,0,0,0,0,0.1326,0.1361,0.131,0.1273,0.1269,0.1256,0.1255,0.1254,0.1194,0.1193,0.1192,0.1191,0.1093,0.109,0.1087,0.1093,0,0,0.1078,0.1077,0,0,0,0,0,0,0,0,0.1328,0.1324,0.1279,0.1276,0.1271,0.1231,0.1237,0.1198,0.1194,0.1222,0.1191,0.119,0.1135,0.1129,0.1121,0.1088,0.1084,0.1078,0.1076,0.1075,0.1074,0,0,0,0,0,0,0,0.1331,0.1326,0.1288,0.1279,0.1274,0.126,0.1253,0.1229,0.1184,0.1219,0.1215,0.1211,0.1132,0.1124,0.1118,0.1083,0.1078,0.1075,0.1074,0.1072,0.107,0.1072,0,0,0,0,0,0,0.1341,0.1328,0.1289,0.1286,0.1299,0.126,0.1252,0.1245,0.1185,0.1176,0.1212,0.1208,0.1129,0.1121,0.1114,0.1147,0.1075,0.1072,0.107,0.1068,0.107,0.1072,0,0,0,0,0,0,0.1342,0.1338,0.1292,0.1307,0.13,0.126,0.1252,0.1244,0.1234,0.1181,0.117,0.121,0.1128,0.1118,0.1111,0.1141,0.1071,0.1068,0.1066,0.1069,0.1071,0.1194,0,0,0,0,0,0,0.1344,0.1338,0.1344,0.1308,0.13,0.1296,0.1253,0.1244,0.1234,0.1228,0.1175,0.1165,0.1126,0.1116,0.1108,0.1136,0.1066,0.1064,0.1068,0.107,0.1188,0.12,0.1211,0,0,0,0,0,0.1346,0.1361,0.1344,0.134,0.1306,0.1297,0.1293,0.1259,0.1235,0.1243,0.1213,0.1166,0.113,0.1116,0.1106,0.1133,0.1063,0.1067,0.107,0.1182,0.1198,0.1211,0,0,0,0,0,0,0.1388,0.1355,0.1336,0.134,0.1325,0.1288,0.1293,0.1268,0.125,0.1242,0.1188,0.1177,0.1183,0.1144,0.1129,0.1142,0.1088,0.1091,0.1177,0.1191,0.1202,0.123,0.1064,0,0,0,0,0,0.1401,0.1401,0.1368,0.1374,0.1368,0.1332,0.1325,0.1302,0.1278,0.1267,0.1233,0.1202,0.1193,0.118,0.1159,0.1166,0.1183,0.1177,0.1189,0.1199,0.1216,0.1258,0.1275,0.1084,0.1084,0.1084,0,0,0.1417,0.1402,0.14,0.1384,0.1366,0.137,0.1325,0.132,0.1327,0.1261,0.1264,0.1241,0.1205,0.1217,0.1216,0.1186,0.1275,0.1204,0.1213,0.1225,0.1264,0.1282,0.1299,0.1087,0.1087,0.1086,0,0,0.1453,0.1438,0.1447,0.144,0.1422,0.1406,0.1408,0.1377,0.1367,0.1373,0.1334,0.1338,0.1304,0.1298,0.1288,0.1352,0.1337,0.1336,0.1414,0.1455,0.1471,0.1485,0.1589,0.1611,0.1339,0.1339,0.1339,0,0.1474,0.1479,0.1453,0.1462,0.1465,0.1426,0.1443,0.1435,0.1408,0.1418,0.1388,0.1387,0.135,0.1387,0.1408,0.138,0.1419,0.1364,0.1472,0.1486,0.1499,0.1601,0.1624,0.1345,0.1345,0.1344,0.1344,0,0.1511,0.1518,0.1528,0.1525,0.1531,0.1541,0.1525,0.1532,0.1518,0.1512,0.1544,0.1514,0.1519,0.1507,0.1475,0.1547,0.1557,0.1487,0.1442,0.1526,0.1628,0.1651,0.1355,0.1352,0.135,0.1349,0,0,0.1545,0.155,0.1554,0.1566,0.1565,0.1573,0.1601,0.1622,0.1661,0.1641,0.1703,0.1686,0.1679,0.1669,0.1637,0.1665,0.1801,0.1622,0.1621,0.1737,0.1953,0.2126,0.2166,0.1748,0.1751,0.1754,0.201,0,0.158,0.1615,0.161,0.1652,0.167,0.1659,0.1703,0.1719,0.1734,0.1787,0.1774,0.1818,0.1737,0.1765,0.1781,0.1799,0.1856,0.1742,0.1843,0.1848,0.1999,0.2196,0.2288,0.2538,0.2031,0.2035,0.2038,0,0.1616,0.1638,0.1684,0.1726,0.1736,0.1763,0.1831,0.1859,0.1918,0.1942,0.1977,0.1974,0.2041,0.1945,0.2042,0.1976,0.1983,0.1985,0.1993,0.2124,0.2062,0.2358,0.2596,0.2487,0.2071,0.2069,0.2066,0,0.1656,0.1691,0.1734,0.1743,0.1787,0.182,0.1849,0.1909,0.1963,0.2052,0.2122,0.2169,0.2235,0.2235,0.2265,0.2159,0.2392,0.2236,0.2406,0.2419,0.2506,0.2523,0.2658,0.2308,0.2307,0.2306,0.2306,0,0.1696,0.1727,0.1757,0.1779,0.1851,0.1869,0.1962,0.1998,0.2096,0.2182,0.2208,0.2309,0.2306,0.2422,0.2383,0.2547,0.25,0.2501,0.2518,0.2559,0.2577,0.2486,0.2351,0.2316,0.2314,0.2312,0.231,0,0.1722,0.1742,0.1789,0.1844,0.1867,0.1916,0.2012,0.2074,0.2179,0.2301,0.2347,0.2477,0.2655,0.2707,0.2782,0.2761,0.2814,0.2891,0.2996,0.3022,0.3043,0.2912,0.2967,0.2894,0.3127,0.3133,0.3138,0,0.1734,0.1765,0.1827,0.1847,0.1868,0.1944,0.1994,0.2099,0.2165,0.2392,0.2449,0.2699,0.2835,0.3121,0.3219,0.3345,0.3077,0.3449,0.3241,0.3157,0.3017,0.2779,0.269,0.3418,0.3425,0.343,0.3435,0,0.1748,0.1771,0.1798,0.185,0.1894,0.1957,0.2033,0.2115,0.2249,0.2389,0.2576,0.2726,0.3104,0.3317,0.3586,0.3644,0.3352,0.3572,0.3431,0.3265,0.3064,0.2966,0.3157,0.3486,0.3481,0.3478,0.3475,0.3473,0.1739,0.1758,0.1786,0.1829,0.1874,0.1929,0.1979,0.2086,0.2226,0.2413,0.259,0.2831,0.3252,0.3672,0.3761,0.3998,0.3707,0.3849,0.371,0.3486,0.3382,0.3754,0.4115,0.4114,0.4112,0.4111,0.411,0,0.17,0.1718,0.1755,0.1796,0.1811,0.1859,0.1962,0.201,0.2145,0.2381,0.2557,0.3034,0.3418,0.376,0.4154,0.4082,0.3893,0.3975,0.3602,0.3508,0.3847,0.3827,0.4207,0.4208,0.4208,0.4208,0.4208,0.4208,0.1673,0.1677,0.1697,0.1703,0.1729,0.175,0.1794,0.1903,0.2062,0.2343,0.2608,0.2832,0.3313,0.3827,0.4056,0.4051,0.3649,0.3631,0.3407,0.3591,0.3563,0.3536,0.3488,0.3791,0.379,0.3047,0.3041,0.3036]},{"header":{"parameterUnit":"m.s-1","parameterCategory":2,"la1":30.2991,"la2":30.254,"lo1":-89.0895,"lo2":-89.0444,"dy":0.0017,"dx":0.0017,"nx":28,"ny":28,"refTime":"2024-07-15T09:00:00:Z","depth":"0","parameterNumber":3,"parameterNumberName":"V-component_of_CURRENTS"},"data":[0,0,0,0,0,0,0,0,0,0,0,0,0,0,0,0,0,0,0,0,0,0,0,0,0,0,0,0,0,0,0,0,0,0,0,0,0,0,0,0,0,0,0,0,0,0,0,0,0,0,0,0,0,0,0,0,0,0,0.0283,0.0283,0,0.0237,0.0236,0.0235,0.0181,0.018,0.018,0.0179,0.0047,0.0044,0.0041,0,0,0,0,0,0,0,0,0,0,0,0,0,0.0323,0.0323,0.0283,0.0283,0.0282,0.0237,0.0236,0.0235,0.0181,0.018,0.0179,0.0179,0.0048,0.0044,0.0041,0,0,0,0,0,0,0,0,0,0,0,0,0,0.0294,0.0323,0.0283,0.025,0.0247,0.0237,0.0236,0.0235,0.0181,0.018,0.0179,0.0178,0.0049,0.0045,0.0041,0.0038,0,0,0.0028,0.0026,0,0,0,0,0,0,0,0,0.0295,0.0292,0.0256,0.0252,0.0249,0.0214,0.0202,0.0165,0.0182,0.0206,0.0179,0.0178,0.0096,0.0088,0.0082,0.0031,0.0026,0.0027,0.0025,0.0023,0.0022,0,0,0,0,0,0,0,0.0297,0.0294,0.0264,0.0255,0.0251,0.0237,0.0231,0.0195,0.0156,0.0203,0.02,0.0196,0.0093,0.0086,0.0078,0.0024,0.0027,0.0024,0.0021,0.0019,-0.0066,-0.0065,0,0,0,0,0,0,0.0306,0.0296,0.0266,0.0263,0.027,0.0237,0.0231,0.0226,0.0158,0.0147,0.0197,0.0193,0.0094,0.0083,0.0073,0.0046,0.0023,0.0019,0.0017,-0.0066,-0.0066,-0.0065,0,0,0,0,0,0,0.0307,0.0304,0.0267,0.0279,0.0273,0.0238,0.0232,0.0225,0.0216,0.0154,0.0141,0.0194,0.0093,0.0079,0.0043,0.0041,0.0017,0.0013,-0.0066,-0.0066,-0.0065,0.0003,0,0,0,0,0,0,0.0308,0.0304,0.0306,0.0279,0.0273,0.0266,0.0233,0.0225,0.0216,0.0211,0.0147,0.0134,0.0091,0.005,0.0039,0.0034,0.001,-0.0066,-0.0066,-0.0065,0.0,0.0005,0.001,0,0,0,0,0,0.031,0.0315,0.0306,0.0303,0.0275,0.0267,0.0263,0.0233,0.0217,0.0219,0.0176,0.0136,0.0045,0.0047,0.0034,0.0028,-0.0067,-0.0066,-0.0066,-0.0002,0.0004,0.001,0,0,0,0,0,0,0.0338,0.0309,0.0299,0.0296,0.0286,0.0258,0.0257,0.0241,0.0211,0.0203,0.0143,0.0127,0.0094,0.0056,0.006,0.0005,-0.0019,-0.0021,0.0034,0.0039,0.0044,0.0073,0.0007,0,0,0,0,0,0.0346,0.0338,0.0317,0.0318,0.0314,0.0289,0.0283,0.0266,0.0237,0.0223,0.0181,0.0132,0.0089,0.0061,0.0022,-0.0005,-0.0041,-0.0019,-0.0014,-0.001,0.0005,-0.0057,-0.0056,-0.0063,-0.0063,-0.0063,0,0,0.036,0.0342,0.0339,0.0323,0.0312,0.0312,0.0282,0.0278,0.0276,0.0212,0.0195,0.0151,0.0087,0.0056,0.0037,0.0021,-0.0024,-0.0009,-0.0005,0.0008,-0.0056,-0.0056,-0.0055,-0.0063,-0.0063,-0.0063,0,0,0.0381,0.0368,0.0368,0.0361,0.0347,0.0335,0.0337,0.0315,0.0301,0.0286,0.0234,0.0195,0.0137,0.0089,0.0056,0.0065,0.0008,0.0047,0.0088,0.0027,0.0027,0.0027,-0.0004,-0.0008,0.0044,0.0045,0.0045,0,0.0399,0.0395,0.0371,0.0371,0.0374,0.0348,0.0361,0.0344,0.0315,0.0309,0.0288,0.021,0.0152,0.0107,0.0106,0.0076,0.0043,0.0071,0.0034,0.0033,0.0031,-0.0001,-0.0006,0.0048,0.0048,0.0047,0.0047,0,0.0417,0.0418,0.0422,0.0412,0.0415,0.0423,0.0404,0.04,0.0384,0.0367,0.0335,0.0267,0.0221,0.0189,0.0148,0.0109,0.0091,0.0052,0.0022,0.0036,0.0001,-0.0005,0.0053,0.0052,0.0051,0.005,0,0,0.0442,0.0435,0.0436,0.0452,0.044,0.0451,0.0448,0.0446,0.0457,0.0415,0.0423,0.0337,0.031,0.0272,0.0211,0.0155,0.0111,0.0106,0.0101,0.0081,-0.0002,0.0034,0.003,0.0061,0.006,0.0059,-0.0018,0,0.0465,0.0483,0.0471,0.0506,0.0523,0.0507,0.0516,0.051,0.0499,0.0499,0.0428,0.0406,0.0336,0.0319,0.0253,0.0158,0.0096,0.0137,-0.0018,-0.0022,0.0013,0.0024,0.0137,0.0083,-0.0024,-0.0025,-0.0026,0,0.0483,0.0498,0.0531,0.0568,0.0575,0.059,0.0618,0.0625,0.0607,0.0599,0.0564,0.0513,0.0443,0.0376,0.0219,0.025,0.0132,0.0047,0.0041,0.005,0.0003,0.0047,0.0074,-0.0083,-0.0037,-0.0036,-0.0035,0,0.0517,0.0544,0.0578,0.0586,0.0614,0.0633,0.0654,0.0655,0.0685,0.0666,0.0692,0.0592,0.0569,0.0407,0.0254,0.0223,0.0091,0.0018,-0.0064,-0.0063,-0.0007,0.0001,-0.0142,-0.0114,-0.0114,-0.0114,-0.0114,0,0.0545,0.0576,0.06,0.062,0.0686,0.0687,0.0752,0.0757,0.0781,0.0835,0.0754,0.0779,0.0573,0.0481,0.0297,0.0136,0.0119,-0.0042,-0.008,0.0022,0.0034,-0.0134,-0.0264,-0.0117,-0.0116,-0.0116,-0.0115,0,0.0575,0.0581,0.0636,0.0678,0.0703,0.0753,0.0834,0.0879,0.0896,0.0966,0.0967,0.0921,0.0818,0.0624,0.0388,0.0223,-0.0044,-0.0032,0.0126,0.0108,-0.0127,-0.0256,-0.0424,-0.0534,-0.0146,-0.0145,-0.0145,0,0.0589,0.0615,0.0688,0.0735,0.0759,0.0835,0.0892,0.0932,0.0991,0.106,0.1103,0.1047,0.1036,0.0756,0.0481,0.0203,-0.0009,0.0077,0.0021,-0.0108,-0.0283,-0.0351,-0.0438,0.0118,0.0121,0.0123,0.0124,0,0.063,0.0652,0.07,0.0795,0.0865,0.0961,0.1045,0.1113,0.1171,0.1238,0.1311,0.1313,0.1118,0.0943,0.0608,0.0389,-0.0006,0.0108,-0.0077,-0.0121,-0.0154,-0.0285,0.0144,0.0143,0.0141,0.014,0.0139,0.0138,0.0663,0.071,0.0772,0.0866,0.0956,0.1076,0.1157,0.1253,0.1371,0.1493,0.1488,0.1567,0.1338,0.0931,0.0619,0.0188,0.0076,0.0023,-0.0132,-0.0194,-0.0274,0.0217,0.0201,0.02,0.0198,0.0197,0.0196,0,0.0697,0.0754,0.0844,0.0958,0.1063,0.1105,0.1252,0.1336,0.1478,0.1633,0.1715,0.1766,0.1419,0.1024,0.0469,0.0057,-0.0129,-0.0196,-0.0281,-0.0375,0.0038,0.0079,0.0102,0.0102,0.0102,0.0102,0.0102,0.0102,0.0718,0.0796,0.0846,0.1022,0.1112,0.1248,0.1335,0.1466,0.1603,0.1849,0.2013,0.2118,0.1945,0.0824,0.0027,-0.0201,-0.0557,-0.0579,-0.0851,-0.0565,-0.0556,-0.0548,-0.0538,-0.0645,-0.0646,-0.1135,-0.114,-0.1144]}],[{"header":{"parameterUnit":"m.s-1","parameterCategory":2,"la1":30.2991,"la2":30.254,"lo1":-89.0895,"lo2":-89.0444,"dy":0.0017,"dx":0.0017,"nx":28,"ny":28,"refTime":"2024-07-15T09:00:00:Z","depth":"2","parameterNumber":2,"parameterNumberName":"U-component_of_CURRENTS"},"data":[0,0,0,0,0,0,0,0,0,0,0,0,0,0,0,0,0,0,0,0,0,0,0,0,0,0,0,0,0,0,0,0,0,0,0,0,0,0,0,0,0,0,0,0,0,0,0,0,0,0,0,0,0,0,0,0,0,0,0.201,0.2011,0,0.2095,0.2096,0.2096,0.2119,0.2118,0.2118,0.2117,0.2194,0.2196,0.2199,0,0,0,0,0,0,0,0,0,0,0,0,0,0.1883,0.1885,0.201,0.2011,0.2012,0.2095,0.2096,0.2097,0.2119,0.2118,0.2118,0.2117,0.2193,0.2196,0.2199,0,0,0,0,0,0,0,0,0,0,0,0,0,0.1949,0.1886,0.2009,0.2034,0.2037,0.2094,0.2096,0.2097,0.2119,0.2118,0.2117,0.2117,0.2192,0.2196,0.2199,0.2234,0,0,0.2211,0.2212,0,0,0,0,0,0,0,0,0.1945,0.1953,0.2029,0.2032,0.2036,0.2096,0.2079,0.2143,0.2119,0.2086,0.2117,0.2117,0.2162,0.2168,0.2184,0.2238,0.2241,0.2211,0.2213,0.2215,0.2216,0,0,0,0,0,0,0,0.1941,0.195,0.2042,0.203,0.2034,0.2046,0.2055,0.2092,0.2125,0.2089,0.2091,0.2103,0.2163,0.218,0.2186,0.2242,0.2211,0.2214,0.2216,0.2218,0.2368,0.237,0,0,0,0,0,0,0.1933,0.1946,0.2039,0.2045,0.1989,0.2049,0.2058,0.2077,0.2125,0.2133,0.2103,0.2104,0.2174,0.2181,0.2189,0.2247,0.2215,0.2218,0.222,0.2366,0.2368,0.237,0,0,0,0,0,0,0.193,0.1941,0.2036,0.1997,0.2011,0.2052,0.2072,0.2079,0.2094,0.2136,0.2143,0.2112,0.2174,0.2183,0.2233,0.2249,0.222,0.2223,0.2364,0.2367,0.2369,0.2354,0,0,0,0,0,0,0.1926,0.1939,0.1949,0.1997,0.2013,0.2068,0.2073,0.2081,0.2103,0.2104,0.2146,0.2153,0.2174,0.2227,0.2236,0.2254,0.2226,0.2362,0.2365,0.2369,0.2353,0.2356,0.2359,0,0,0,0,0,0.1921,0.1935,0.1949,0.196,0.2025,0.2069,0.2078,0.2104,0.2104,0.2114,0.215,0.2151,0.2255,0.2232,0.2242,0.2261,0.236,0.2364,0.2368,0.2351,0.2356,0.2359,0,0,0,0,0,0,0.1879,0.194,0.1956,0.1986,0.2024,0.2073,0.2085,0.2103,0.214,0.2137,0.2173,0.2183,0.2235,0.2256,0.2229,0.2318,0.2309,0.2315,0.2292,0.2297,0.23,0.2272,0.2229,0,0,0,0,0,0.1876,0.1903,0.196,0.198,0.2,0.2042,0.2062,0.208,0.212,0.2134,0.2165,0.2208,0.2262,0.2283,0.2328,0.2372,0.2395,0.2394,0.2398,0.24,0.2388,0.2448,0.2455,0.2384,0.2384,0.2384,0,0,0.186,0.19,0.1912,0.1973,0.2002,0.2035,0.2052,0.2079,0.2103,0.2138,0.2173,0.2219,0.2279,0.2333,0.2357,0.2349,0.2437,0.2405,0.2407,0.2393,0.2453,0.246,0.2465,0.2387,0.2386,0.2386,0,0,0.1844,0.1881,0.19,0.1937,0.1988,0.2021,0.2028,0.2078,0.2096,0.2139,0.2182,0.2234,0.2298,0.235,0.2385,0.2435,0.2455,0.2457,0.2446,0.2505,0.251,0.2515,0.256,0.2569,0.2455,0.2455,0.2455,0,0.1821,0.1859,0.1908,0.194,0.1964,0.2014,0.2032,0.207,0.2126,0.2145,0.2144,0.2263,0.2305,0.2392,0.241,0.2439,0.2473,0.242,0.2506,0.2512,0.2517,0.2562,0.2572,0.2454,0.2454,0.2454,0.2454,0,0.1826,0.1856,0.1868,0.1928,0.196,0.1984,0.2043,0.2071,0.2094,0.2131,0.2201,0.2267,0.2334,0.2368,0.2401,0.2477,0.249,0.2503,0.2485,0.2523,0.2568,0.2579,0.2454,0.2454,0.2454,0.2454,0,0,0.1778,0.1854,0.1859,0.1882,0.1953,0.198,0.2022,0.2077,0.2107,0.2157,0.2199,0.2293,0.2323,0.2366,0.2427,0.2477,0.2548,0.2501,0.2505,0.2527,0.2676,0.2669,0.268,0.2579,0.2581,0.2582,0.2695,0,0.1765,0.1808,0.1852,0.1886,0.1914,0.1969,0.2006,0.2061,0.2109,0.2165,0.2236,0.2306,0.2329,0.2372,0.2424,0.2529,0.2576,0.2516,0.2653,0.2657,0.263,0.2691,0.2283,0.2348,0.2705,0.2707,0.2708,0,0.1763,0.1793,0.182,0.1873,0.1888,0.1915,0.198,0.2023,0.2116,0.215,0.2221,0.2286,0.2387,0.2393,0.2551,0.2515,0.2585,0.265,0.2656,0.2655,0.2669,0.237,0.2354,0.2726,0.2725,0.2724,0.2722,0,0.1722,0.1772,0.1788,0.181,0.188,0.1893,0.193,0.2013,0.2062,0.2154,0.2205,0.2306,0.239,0.2478,0.2612,0.2588,0.2779,0.2764,0.2818,0.2818,0.2499,0.2469,0.2858,0.2858,0.2857,0.2857,0.2857,0,0.1709,0.1725,0.1769,0.1786,0.1807,0.186,0.1901,0.1954,0.2043,0.2118,0.2202,0.2292,0.2418,0.2547,0.2626,0.2768,0.2795,0.2824,0.2853,0.2487,0.2456,0.2801,0.2793,0.2861,0.286,0.286,0.2859,0,0.1687,0.1714,0.174,0.1785,0.1798,0.1818,0.1891,0.1935,0.2015,0.2121,0.2157,0.2311,0.2481,0.2612,0.2784,0.2808,0.2927,0.2967,0.2531,0.2507,0.2913,0.2903,0.3017,0.3018,0.3019,0.3019,0.302,0,0.1693,0.1701,0.1735,0.1752,0.1775,0.1809,0.1845,0.1916,0.1976,0.2144,0.2203,0.239,0.2513,0.2752,0.2728,0.2831,0.3011,0.2627,0.2508,0.2916,0.2933,0.2922,0.2911,0.2071,0.2064,0.2058,0.2053,0,0.1706,0.1708,0.1729,0.1753,0.178,0.181,0.1865,0.1897,0.2004,0.2093,0.2237,0.2338,0.247,0.2394,0.253,0.2535,0.2566,0.2517,0.3042,0.2124,0.2041,0.2053,0.207,0.2,0.2005,0.2009,0.2012,0.2014,0.1717,0.1725,0.1744,0.176,0.1787,0.1803,0.1812,0.1875,0.1944,0.2035,0.2176,0.2205,0.2137,0.2117,0.2122,0.2105,0.2282,0.2217,0.2227,0.2245,0.2145,0.2072,0.2015,0.2021,0.2025,0.2029,0.2033,0,0.173,0.1739,0.1756,0.1761,0.1763,0.1791,0.1827,0.1811,0.1854,0.1908,0.1994,0.1699,0.1652,0.17,0.1502,0.1543,0.1418,0.1595,0.1377,0.1426,0.1471,0.1327,0.0983,0.0982,0.0981,0.098,0,0,0.1742,0.1747,0.1739,0.173,0.1737,0.1729,0.1733,0.1704,0.1694,0.1586,0.151,0.1582,0.1556,0.1229,0.117,0.1094,0.1273,0.1038,0.1838,0.1621,0.1667,0.1748,0.1573,0,0,0,0,0]},{"header":{"parameterUnit":"m.s-1","parameterCategory":2,"la1":30.2991,"la2":30.254,"lo1":-89.0895,"lo2":-89.0444,"dy":0.0017,"dx":0.0017,"nx":28,"ny":28,"refTime":"2024-07-15T09:00:00:Z","depth":"2","parameterNumber":3,"parameterNumberName":"V-component_of_CURRENTS"},"data":[0,0,0,0,0,0,0,0,0,0,0,0,0,0,0,0,0,0,0,0,0,0,0,0,0,0,0,0,0,0,0,0,0,0,0,0,0,0,0,0,0,0,0,0,0,0,0,0,0,0,0,0,0,0,0,0,0,0,-0.0132,-0.0132,0,-0.0145,-0.0145,-0.0146,-0.0163,-0.0164,-0.0164,-0.0164,-0.0221,-0.0222,-0.0223,0,0,0,0,0,0,0,0,0,0,0,0,0,-0.0125,-0.0126,-0.0132,-0.0132,-0.0132,-0.0145,-0.0145,-0.0146,-0.0163,-0.0164,-0.0164,-0.0164,-0.022,-0.0222,-0.0223,0,0,0,0,0,0,0,0,0,0,0,0,0,-0.0133,-0.0126,-0.0132,-0.0142,-0.0143,-0.0145,-0.0145,-0.0146,-0.0163,-0.0164,-0.0164,-0.0164,-0.022,-0.0221,-0.0223,-0.0229,0,0,-0.0229,-0.023,0,0,0,0,0,0,0,0,-0.0133,-0.0134,-0.0141,-0.0141,-0.0143,-0.0152,-0.0163,-0.0175,-0.0163,-0.0157,-0.0164,-0.0164,-0.0201,-0.0204,-0.0207,-0.0231,-0.0234,-0.0229,-0.0231,-0.0231,-0.0232,0,0,0,0,0,0,0,-0.0132,-0.0133,-0.0138,-0.0141,-0.0142,-0.0147,-0.0148,-0.0166,-0.0178,-0.0157,-0.0158,-0.0158,-0.0202,-0.0205,-0.0208,-0.0235,-0.0229,-0.0231,-0.0232,-0.0233,-0.0235,-0.0234,0,0,0,0,0,0,-0.0128,-0.0133,-0.0138,-0.0139,-0.0137,-0.0146,-0.0148,-0.015,-0.0177,-0.0181,-0.0158,-0.0159,-0.0201,-0.0206,-0.021,-0.0188,-0.0231,-0.0233,-0.0234,-0.0236,-0.0235,-0.0234,0,0,0,0,0,0,-0.0128,-0.0129,-0.0137,-0.0135,-0.0136,-0.0146,-0.0147,-0.015,-0.0144,-0.0177,-0.0182,-0.0149,-0.0202,-0.0208,-0.0209,-0.0192,-0.0234,-0.0236,-0.0238,-0.0236,-0.0234,-0.0163,0,0,0,0,0,0,-0.0128,-0.0129,-0.0122,-0.0135,-0.0136,-0.0129,-0.0147,-0.015,-0.0144,-0.0145,-0.0172,-0.0178,-0.0202,-0.0206,-0.0211,-0.0195,-0.0237,-0.0239,-0.0237,-0.0235,-0.0166,-0.0159,-0.0152,0,0,0,0,0,-0.0128,-0.0119,-0.0121,-0.0122,-0.0129,-0.0128,-0.0129,-0.0138,-0.0143,-0.0135,-0.0148,-0.0176,-0.0196,-0.0206,-0.0212,-0.0197,-0.024,-0.0237,-0.0235,-0.017,-0.016,-0.0152,0,0,0,0,0,0,-0.0107,-0.012,-0.0123,-0.0117,-0.0117,-0.013,-0.0122,-0.0128,-0.0132,-0.0131,-0.0163,-0.0169,-0.0165,-0.0188,-0.0198,-0.019,-0.0223,-0.0221,-0.0171,-0.0162,-0.0155,-0.0151,-0.0239,0,0,0,0,0,-0.01,-0.01,-0.0107,-0.01,-0.0098,-0.0107,-0.0105,-0.011,-0.0117,-0.0119,-0.0135,-0.015,-0.0161,-0.0166,-0.0181,-0.0176,-0.0211,-0.017,-0.0163,-0.0156,-0.0156,-0.0182,-0.0178,-0.0226,-0.0226,-0.0226,0,0,-0.0088,-0.0096,-0.0094,-0.0096,-0.0097,-0.0088,-0.0107,-0.0098,-0.0089,-0.0125,-0.0113,-0.0127,-0.0154,-0.0147,-0.0147,-0.0163,-0.0162,-0.0153,-0.0148,-0.0151,-0.0179,-0.0175,-0.0171,-0.0224,-0.0224,-0.0224,0,0,-0.0067,-0.0071,-0.0062,-0.0061,-0.0059,-0.0065,-0.0058,-0.0062,-0.0061,-0.0049,-0.0072,-0.007,-0.0086,-0.0097,-0.0107,-0.0069,-0.0124,-0.0075,-0.0036,-0.006,-0.0057,-0.0054,-0.0097,-0.0099,-0.007,-0.007,-0.007,0,-0.0051,-0.0043,-0.0057,-0.0046,-0.0038,-0.0051,-0.0032,-0.0034,-0.0035,-0.003,-0.0036,-0.0045,-0.0062,-0.0059,-0.0042,-0.0054,-0.0086,-0.0066,-0.0051,-0.0049,-0.0048,-0.0093,-0.0096,-0.0066,-0.0066,-0.0067,-0.0067,0,-0.0027,-0.0014,-0.0006,-0.0,0.0007,0.0022,0.0018,0.0026,0.0028,0.0027,0.0038,0.0022,0.0015,0.0016,-0.0001,0.0006,-0.0027,-0.0041,-0.0074,-0.0039,-0.0088,-0.0093,-0.0061,-0.0062,-0.0063,-0.0064,0,0,-0.0006,0.0008,0.0013,0.0028,0.0034,0.0044,0.0059,0.007,0.0083,0.0086,0.0103,0.01,0.0092,0.008,0.0061,0.0048,0.0036,0.0015,0.0012,-0.003,-0.0035,-0.0018,-0.0022,0.0023,0.0023,0.0023,-0.0076,0,0.0021,0.0052,0.0051,0.0088,0.0107,0.0101,0.0118,0.0126,0.0129,0.014,0.0128,0.0134,0.0114,0.0117,0.0103,0.0053,0.0028,0.0063,-0.0062,-0.0066,-0.0055,-0.0024,-0.0071,-0.0158,-0.008,-0.0081,-0.0082,0,0.0048,0.0065,0.0105,0.0136,0.0144,0.0162,0.0185,0.0198,0.0201,0.0204,0.0204,0.0188,0.0175,0.0154,0.0079,0.01,0.004,-0.0003,-0.0008,-0.002,-0.0055,-0.018,-0.017,-0.009,-0.0089,-0.0089,-0.0088,0,0.0072,0.0106,0.014,0.015,0.0178,0.0196,0.021,0.0221,0.0242,0.024,0.0257,0.0225,0.0221,0.0147,0.0072,0.0069,-0.0019,-0.004,-0.0089,-0.0091,-0.0169,-0.0175,-0.01,-0.01,-0.01,-0.01,-0.0099,0,0.0102,0.0133,0.0154,0.0175,0.0218,0.0226,0.0268,0.0273,0.0294,0.0336,0.0294,0.0324,0.0222,0.0168,0.0079,-0.001,-0.002,-0.0079,-0.0106,-0.0144,-0.0146,-0.0117,-0.0117,-0.0103,-0.0103,-0.0102,-0.0101,0,0.0132,0.0145,0.0185,0.0218,0.0232,0.0263,0.0311,0.0342,0.035,0.0402,0.0408,0.0389,0.0339,0.0224,0.0104,0.0011,-0.0088,-0.0124,-0.0164,-0.0191,-0.0155,-0.0151,-0.0197,-0.0197,-0.0197,-0.0197,-0.0197,0,0.0153,0.0174,0.0216,0.0244,0.0264,0.0307,0.0345,0.0368,0.0411,0.0461,0.0499,0.0468,0.0508,0.0327,0.0117,-0.0056,-0.0058,-0.0218,-0.0217,-0.0139,-0.0161,-0.0157,-0.0153,-0.0313,-0.0314,-0.0314,-0.0315,0,0.0187,0.0198,0.0229,0.0283,0.0326,0.0383,0.0442,0.0492,0.0539,0.0615,0.0708,0.075,0.0568,0.0379,0.012,0.0003,-0.0192,-0.0235,-0.0161,-0.0253,-0.0249,-0.0269,-0.0262,-0.0322,-0.0321,-0.0321,-0.032,-0.032,0.021,0.0235,0.027,0.0324,0.0378,0.0468,0.0537,0.0633,0.0755,0.091,0.0908,0.0931,0.059,0.0268,0.0053,-0.0203,-0.0177,-0.0299,-0.0298,-0.0295,-0.0263,-0.0255,-0.0326,-0.0326,-0.0325,-0.0325,-0.0324,0,0.0231,0.0262,0.0312,0.0383,0.0455,0.0481,0.0609,0.072,0.091,0.1009,0.115,0.081,0.0601,0.0261,-0.0144,-0.0344,-0.0362,-0.0387,-0.0411,-0.0405,-0.0399,-0.0372,-0.0465,-0.0465,-0.0465,-0.0465,0,0,0.0245,0.0287,0.0315,0.0432,0.0496,0.0618,0.0708,0.0908,0.0996,0.1133,0.1085,0.1068,0.0562,0.0221,-0.0074,-0.0268,-0.0259,-0.0279,-0.0157,-0.0146,-0.0136,-0.0354,-0.0305,0,0,0,0,0]}],[{"header":{"parameterUnit":"m.s-1","parameterCategory":2,"la1":30.2991,"la2":30.254,"lo1":-89.0895,"lo2":-89.0444,"dy":0.0017,"dx":0.0017,"nx":28,"ny":28,"refTime":"2024-07-15T09:00:00:Z","depth":"4","parameterNumber":2,"parameterNumberName":"U-component_of_CURRENTS"},"data":[0,0,0,0,0,0,0,0,0,0,0,0,0,0,0,0,0,0,0,0,0,0,0,0,0,0,0,0,0,0,0,0,0,0,0,0,0,0,0,0,0,0,0,0,0,0,0,0,0,0,0,0,0,0,0,0,0,0,0.0517,0.0517,0,0.0572,0.0574,0.0575,0.0711,0.0713,0.0714,0.0716,0.0814,0.0815,0.0816,0,0,0,0,0,0,0,0,0,0,0,0,0,0.0502,0.0503,0.0518,0.0517,0.0516,0.0572,0.0574,0.0576,0.0711,0.0713,0.0715,0.0717,0.0813,0.0815,0.0816,0,0,0,0,0,0,0,0,0,0,0,0,0,0.054,0.0503,0.0518,0.0581,0.0586,0.0571,0.0574,0.0576,0.071,0.0713,0.0715,0.0718,0.0813,0.0815,0.0816,0.0775,0,0,0.0821,0.0822,0,0,0,0,0,0,0,0,0.0538,0.0542,0.0572,0.0576,0.0582,0.0626,0.0603,0.064,0.071,0.0677,0.0716,0.0719,0.0745,0.0752,0.0774,0.078,0.0784,0.0821,0.0822,0.0823,0.0823,0,0,0,0,0,0,0,0.0535,0.054,0.0552,0.0571,0.0577,0.0596,0.0606,0.0612,0.0707,0.068,0.0687,0.0671,0.075,0.0773,0.0778,0.0786,0.0821,0.0822,0.0823,0.0824,0.0932,0.0934,0,0,0,0,0,0,0.0501,0.0538,0.055,0.0553,0.0551,0.0593,0.0605,0.062,0.0706,0.0717,0.0669,0.0677,0.0769,0.0776,0.0781,0.0874,0.0823,0.0824,0.0825,0.093,0.0933,0.0935,0,0,0,0,0,0,0.0501,0.0503,0.0548,0.0534,0.054,0.059,0.0606,0.0619,0.071,0.0695,0.0711,0.0752,0.0771,0.0779,0.0819,0.0874,0.0825,0.0826,0.0928,0.0931,0.0934,0.0971,0,0,0,0,0,0,0.0501,0.0503,0.0518,0.0533,0.0539,0.0562,0.0602,0.0618,0.0686,0.07,0.0769,0.0777,0.0774,0.0816,0.082,0.0875,0.0827,0.0926,0.093,0.0933,0.0968,0.0975,0.0982,0,0,0,0,0,0.0501,0.0501,0.0519,0.052,0.0554,0.0561,0.0569,0.0619,0.0688,0.0718,0.0764,0.0779,0.0844,0.0818,0.0822,0.0879,0.0924,0.0928,0.0933,0.0965,0.0974,0.0981,0,0,0,0,0,0,0.0505,0.0514,0.0535,0.0541,0.0558,0.058,0.0612,0.0655,0.0721,0.0753,0.078,0.0789,0.0848,0.0855,0.0827,0.0924,0.0896,0.0902,0.0919,0.0928,0.0935,0.0938,0.0829,0,0,0,0,0,0.0504,0.052,0.0524,0.0537,0.0556,0.0605,0.0625,0.0654,0.0693,0.0733,0.0779,0.0828,0.0858,0.0888,0.0904,0.0945,0.0919,0.0993,0.1,0.1006,0.1014,0.101,0.1016,0.0949,0.0949,0.0949,0,0,0.0505,0.0513,0.0522,0.0539,0.0578,0.0597,0.0632,0.067,0.0698,0.0724,0.0814,0.0847,0.0872,0.0917,0.0948,0.0939,0.1007,0.1012,0.1016,0.1021,0.1015,0.1021,0.1026,0.0952,0.0952,0.0951,0,0,0.0505,0.054,0.0555,0.0574,0.0602,0.0619,0.0646,0.0697,0.0748,0.0796,0.0834,0.0894,0.0954,0.0975,0.0993,0.105,0.1037,0.1088,0.1133,0.1129,0.1134,0.1138,0.1083,0.1082,0.11,0.11,0.11,0,0.051,0.0531,0.0558,0.0579,0.0597,0.0644,0.0668,0.0705,0.076,0.0799,0.0831,0.0954,0.0976,0.1034,0.1065,0.1066,0.1049,0.1094,0.1135,0.1139,0.1142,0.1085,0.1083,0.1102,0.1102,0.1102,0.1101,0,0.0519,0.0545,0.0567,0.0611,0.0631,0.0659,0.0689,0.0747,0.0821,0.085,0.0948,0.0983,0.1066,0.109,0.1098,0.1159,0.1131,0.1133,0.1106,0.1151,0.1088,0.1085,0.1105,0.1105,0.1104,0.1103,0,0,0.0505,0.0561,0.057,0.0604,0.0654,0.067,0.0727,0.0777,0.0838,0.0911,0.0998,0.1068,0.1129,0.1155,0.119,0.1198,0.1197,0.1195,0.1194,0.1125,0.1162,0.1126,0.1118,0.1217,0.1217,0.1218,0.1096,0,0.0517,0.0552,0.0574,0.0624,0.0659,0.0713,0.0766,0.0815,0.0871,0.0957,0.1025,0.1121,0.114,0.1218,0.1224,0.121,0.12,0.1228,0.1143,0.1139,0.109,0.1118,0.122,0.1093,0.1093,0.1092,0.1092,0,0.0515,0.0545,0.0589,0.0659,0.0686,0.0725,0.0825,0.0866,0.0962,0.1023,0.1119,0.1182,0.1248,0.1262,0.1239,0.1265,0.1228,0.1195,0.119,0.1146,0.1101,0.1049,0.1086,0.1087,0.1087,0.1088,0.1088,0,0.0493,0.0551,0.0591,0.0615,0.0699,0.0759,0.0822,0.0908,0.0959,0.1088,0.1149,0.1225,0.1296,0.1268,0.1244,0.1253,0.118,0.1169,0.1083,0.1076,0.1124,0.1121,0.1141,0.1141,0.1141,0.1141,0.1142,0,0.048,0.0515,0.0599,0.0628,0.0714,0.0774,0.0874,0.0945,0.1044,0.1091,0.1204,0.1244,0.1312,0.1294,0.1241,0.1151,0.1175,0.1089,0.1057,0.1139,0.114,0.1119,0.1118,0.1137,0.1138,0.1139,0.114,0,0.0444,0.049,0.0548,0.0658,0.0707,0.0775,0.0916,0.0955,0.1071,0.1135,0.1198,0.1273,0.1245,0.1248,0.119,0.1147,0.1063,0.1025,0.1086,0.1059,0.0948,0.0951,0.0895,0.0894,0.0892,0.089,0.0889,0,0.0426,0.045,0.0573,0.0611,0.0672,0.0789,0.085,0.0977,0.1006,0.1111,0.1114,0.1168,0.12,0.1058,0.1074,0.0976,0.0972,0.094,0.0978,0.0955,0.093,0.0935,0.094,0.0887,0.0886,0.0886,0.0885,0,0.0391,0.0442,0.0487,0.058,0.0648,0.0724,0.0825,0.0842,0.0951,0.1057,0.104,0.1055,0.1016,0.0987,0.0963,0.0882,0.0974,0.0922,0.0925,0.096,0.0944,0.0921,0.0928,0.088,0.088,0.0881,0.0881,0,0.0367,0.0391,0.0454,0.0528,0.0607,0.0638,0.0698,0.0737,0.0799,0.0914,0.0886,0.091,0.0978,0.0932,0.0868,0.0844,0.0822,0.0815,0.0823,0.083,0.0877,0.085,0.0729,0,0,0,0,0,0.0346,0.0357,0.0398,0.0463,0.053,0.0589,0.0662,0.0703,0.0805,0.0765,0.0841,0.0803,0.0783,0.0787,0.0739,0.0808,0.0805,0.0752,0.0797,0.0848,0.0854,0.0923,0,0,0,0,0,0,0.0322,0.0356,0.0371,0.04,0.0437,0.0494,0.0537,0.0577,0.0582,0.0687,0.066,0.0783,0.0743,0.0795,0.0731,0.0736,0.0755,0.0789,0.0788,0.0844,0.085,0.0855,0.0928,0,0,0,0,0]},{"header":{"parameterUnit":"m.s-1","parameterCategory":2,"la1":30.2991,"la2":30.254,"lo1":-89.0895,"lo2":-89.0444,"dy":0.0017,"dx":0.0017,"nx":28,"ny":28,"refTime":"2024-07-15T09:00:00:Z","depth":"4","parameterNumber":3,"parameterNumberName":"V-component_of_CURRENTS"},"data":[0,0,0,0,0,0,0,0,0,0,0,0,0,0,0,0,0,0,0,0,0,0,0,0,0,0,0,0,0,0,0,0,0,0,0,0,0,0,0,0,0,0,0,0,0,0,0,0,0,0,0,0,0,0,0,0,0,0,0.0039,0.0039,0,-0.0018,-0.0019,-0.0021,-0.008,-0.0081,-0.0081,-0.0081,-0.0157,-0.0159,-0.0161,0,0,0,0,0,0,0,0,0,0,0,0,0,0.0032,0.0032,0.0039,0.0039,0.0039,-0.0018,-0.0019,-0.0021,-0.008,-0.0081,-0.0081,-0.0081,-0.0157,-0.0159,-0.0161,0,0,0,0,0,0,0,0,0,0,0,0,0,0.0004,0.0032,0.0039,0.0008,0.0005,-0.0018,-0.0019,-0.0021,-0.008,-0.0081,-0.0081,-0.0081,-0.0156,-0.0159,-0.0162,-0.0173,0,0,-0.017,-0.0171,0,0,0,0,0,0,0,0,0.0006,0.0004,0.0012,0.001,0.0007,-0.0036,-0.005,-0.0071,-0.008,-0.0055,-0.0081,-0.0081,-0.0114,-0.012,-0.014,-0.0177,-0.018,-0.017,-0.0172,-0.0173,-0.0174,0,0,0,0,0,0,0,0.0008,0.0006,0.0009,0.0012,0.0009,-0.0025,-0.003,-0.0055,-0.0088,-0.0058,-0.006,-0.0055,-0.0117,-0.0137,-0.0142,-0.0181,-0.017,-0.0173,-0.0174,-0.0176,-0.0288,-0.029,0,0,0,0,0,0,0.0033,0.0008,0.0011,0.0008,0.0014,-0.0024,-0.003,-0.0028,-0.0088,-0.0095,-0.0055,-0.0058,-0.0132,-0.0139,-0.0145,-0.0195,-0.0173,-0.0176,-0.0177,-0.0287,-0.0289,-0.029,0,0,0,0,0,0,0.0033,0.0034,0.0014,0.0012,0.0008,-0.0023,-0.0021,-0.0029,-0.0072,-0.0084,-0.0093,-0.0091,-0.0133,-0.0141,-0.0172,-0.0197,-0.0177,-0.018,-0.0285,-0.0287,-0.0289,-0.0274,0,0,0,0,0,0,0.0033,0.0034,0.0031,0.0014,0.001,-0.0004,-0.002,-0.0029,-0.0063,-0.0069,-0.0118,-0.0124,-0.0134,-0.0167,-0.0175,-0.0201,-0.0182,-0.0284,-0.0286,-0.0289,-0.0273,-0.0276,-0.0278,0,0,0,0,0,0.0033,0.0041,0.0031,0.0031,0.0011,-0.0003,-0.001,-0.0038,-0.0065,-0.0081,-0.011,-0.0124,-0.0189,-0.017,-0.0178,-0.0206,-0.0283,-0.0286,-0.0289,-0.0272,-0.0275,-0.0278,0,0,0,0,0,0,0.0033,0.0035,0.0025,0.0031,0.0013,-0.0011,-0.0025,-0.0052,-0.0092,-0.0103,-0.0129,-0.0137,-0.018,-0.0196,-0.0174,-0.0249,-0.0244,-0.0248,-0.0229,-0.0232,-0.0234,-0.0214,-0.0184,0,0,0,0,0,0.0035,0.0039,0.0031,0.0031,0.0023,-0.0011,-0.0026,-0.0046,-0.0073,-0.0094,-0.0129,-0.0166,-0.0196,-0.0214,-0.0244,-0.0276,-0.0273,-0.0305,-0.0307,-0.0309,-0.0301,-0.0317,-0.0319,-0.03,-0.03,-0.03,0,0,0.0037,0.0038,0.0039,0.003,0.001,0.0006,-0.0024,-0.0047,-0.0054,-0.0093,-0.0132,-0.0177,-0.0208,-0.0244,-0.0266,-0.026,-0.0312,-0.0313,-0.0313,-0.0304,-0.032,-0.0322,-0.0323,-0.0302,-0.0301,-0.0301,0,0,0.0049,0.0039,0.0046,0.0031,0.0012,0.0001,-0.0009,-0.0047,-0.0071,-0.0107,-0.014,-0.0189,-0.0246,-0.0264,-0.0281,-0.0314,-0.0325,-0.0348,-0.0339,-0.0355,-0.0356,-0.0357,-0.0341,-0.034,-0.0346,-0.0346,-0.0346,0,0.005,0.0058,0.0043,0.004,0.0036,-0.0,0.0001,-0.0022,-0.0069,-0.0085,-0.0117,-0.0216,-0.0247,-0.0277,-0.0297,-0.0317,-0.0323,-0.0321,-0.0355,-0.0356,-0.0357,-0.034,-0.034,-0.0346,-0.0346,-0.0346,-0.0346,0,0.0067,0.0065,0.0065,0.0059,0.0051,0.0042,0.0025,-0.0003,-0.0045,-0.0073,-0.0135,-0.0191,-0.0249,-0.0279,-0.03,-0.0336,-0.0336,-0.0354,-0.0338,-0.0357,-0.0339,-0.0339,-0.0345,-0.0345,-0.0345,-0.0345,0,0,0.0096,0.0083,0.0083,0.0079,0.0058,0.0056,0.0047,0.0034,0.0021,-0.0053,-0.0084,-0.0161,-0.0221,-0.0245,-0.0294,-0.0315,-0.033,-0.0345,-0.0346,-0.0311,-0.0351,-0.0359,-0.036,-0.0363,-0.0364,-0.0364,-0.0329,0,0.0112,0.0122,0.0114,0.0118,0.0117,0.009,0.0088,0.0065,0.003,-0.0011,-0.0081,-0.0139,-0.0196,-0.0247,-0.0277,-0.0321,-0.0333,-0.0336,-0.0353,-0.0353,-0.0345,-0.0361,-0.0365,-0.0329,-0.0329,-0.0329,-0.0329,0,0.0131,0.0136,0.015,0.0142,0.0141,0.014,0.013,0.0121,0.0074,0.0035,-0.0035,-0.0104,-0.0164,-0.0217,-0.0276,-0.0282,-0.0318,-0.0343,-0.0343,-0.0355,-0.0362,-0.0313,-0.0328,-0.0328,-0.0328,-0.0328,-0.0328,0,0.016,0.016,0.0176,0.0171,0.0161,0.0161,0.0154,0.0126,0.0126,0.0054,0.003,-0.0059,-0.0112,-0.0173,-0.0259,-0.0272,-0.031,-0.0325,-0.0352,-0.0351,-0.0356,-0.0356,-0.0356,-0.0356,-0.0356,-0.0356,-0.0356,0,0.018,0.0188,0.0186,0.0192,0.0204,0.0182,0.0193,0.0169,0.0143,0.0142,0.0043,0.0007,-0.0111,-0.0164,-0.0232,-0.0292,-0.0288,-0.0345,-0.035,-0.035,-0.035,-0.0354,-0.0355,-0.0354,-0.0355,-0.0355,-0.0355,0,0.0197,0.0198,0.021,0.0212,0.0217,0.0217,0.0228,0.0235,0.0201,0.0196,0.0167,0.0067,-0.0019,-0.0111,-0.0203,-0.0247,-0.0307,-0.0329,-0.0299,-0.0304,-0.0333,-0.0333,-0.0333,-0.0333,-0.0333,-0.0333,-0.0333,0,0.0202,0.0215,0.0234,0.0242,0.0242,0.0251,0.0266,0.0256,0.0274,0.023,0.0231,0.013,0.0051,-0.0066,-0.0176,-0.0278,-0.0308,-0.0312,-0.0349,-0.0329,-0.0334,-0.0334,-0.0334,-0.0334,-0.0334,-0.0334,-0.0334,0,0.0212,0.0222,0.0235,0.0262,0.0281,0.0306,0.0327,0.0344,0.0335,0.033,0.0266,0.0159,0.0068,-0.0068,-0.0155,-0.0235,-0.0296,-0.0314,-0.0314,-0.0349,-0.033,-0.0335,-0.0335,-0.0334,-0.0334,-0.0334,-0.0334,0,0.0217,0.0223,0.0248,0.0267,0.0304,0.033,0.034,0.0351,0.0362,0.0333,0.031,0.0175,0.0103,-0.0044,-0.0126,-0.0209,-0.0231,-0.0242,-0.0246,-0.0247,-0.0254,-0.022,-0.0189,0,0,0,0,0,0.0217,0.0228,0.0249,0.0269,0.0311,0.0331,0.0374,0.0384,0.04,0.0368,0.0339,0.024,0.0074,-0.0011,-0.0095,-0.013,-0.0243,-0.0229,-0.0257,-0.0337,-0.0337,-0.0364,0,0,0,0,0,0,0.0213,0.0238,0.0245,0.0274,0.0292,0.0336,0.036,0.0364,0.035,0.0344,0.0251,0.0231,0.0064,0.0116,-0.0099,-0.0125,-0.015,-0.0299,-0.03,-0.0338,-0.0337,-0.0337,-0.0364,0,0,0,0,0]}]]